Tracking 19794 objects as of 21-Jul-2019
HD Live streaming from Space Station
objects crossing your sky now

FENGYUN 1C DEB

Track FENGYUN 1C DEB now!
10-day predictions


NORAD ID: 41001
Int'l Code: 1999-025EXF
Perigee: 805.8 km
Apogee: 863.2 km
Inclination: 99.0 °
Period: 101.5 minutes
Semi major axis: 7205 km
RCS: Unknown
Launch date: May 10, 1999
Source: People's Republic of China (PRC)
Launch site: Taiyaun Space Center, China (TSC)

Note: This is SATELLITE DEBRIS
aabbcc
Your satellite tracking list
Your tracking list is empty




NASA's NSSDC Master Catalog

Two Line Element Set (TLE):
1 41001U 99025EXF 19124.25769854  .00000968  00000-0  47795-3 0  9992
2 41001  98.9940 136.1037 0039847 123.5917 296.8080 14.19411058267098
Source of the keplerian elements: AFSPC